Simultaneous Nadir Overpasses (SNOs) Predictions

Prediction of SNOs between METOP-B and NOAA-19 Satellite Orbit:

Table of predicted SNOs for the next 14.0 days since TLE Epoch: 6/25/2022
Index Date (METOP-B) Time (METOP-B) Lat,Lon (METOP-B) SZA (METOP-B ) Date (NOAA-19) Time (NOAA-19) Lat,Lon (NOAA-19) SZA (NOAA-19 ) Distance(km) Time Diff (sec)
1 06/26/2022 01:03:40 -80.85, 17.46 121.00 06/26/2022 01:02:34 -80.85, 17.63 121.01 3.16 66
2 06/26/2022 01:54:20 80.86,-175.09 59.02 06/26/2022 01:53:39 80.85,-175.04 59.00 1.44 41
3 06/26/2022 02:45:02 -80.84, -8.03 121.02 06/26/2022 02:44:34 -80.85, -7.91 121.01 2.29 28
4 06/26/2022 03:35:42 80.85, 159.42 59.00 06/26/2022 03:35:39 80.85, 159.42 59.00 0.12 3
5 06/26/2022 04:26:22 -80.86, -33.16 120.99 06/26/2022 04:26:32 -80.85, -33.08 120.99 1.80 10
6 06/26/2022 05:17:03 80.84, 133.93 58.98 06/26/2022 05:17:38 80.85, 133.87 59.00 1.38 35
7 06/26/2022 06:07:44 -80.85, -58.65 121.01 06/26/2022 06:08:32 -80.85, -58.62 120.99 0.46 48
8 06/26/2022 06:58:24 80.85, 108.80 59.01 06/26/2022 06:59:37 80.84, 108.70 59.03 2.07 73
9 07/07/2022 06:30:26 80.85, 115.78 59.74 07/07/2022 06:29:13 80.86, 115.86 59.72 1.39 73
10 07/07/2022 07:21:07 -80.86, -76.70 120.24 07/07/2022 07:20:09 -80.86, -76.75 120.27 1.28 58
11 07/07/2022 08:11:47 80.86, 90.65 59.77 07/07/2022 08:11:12 80.85, 90.68 59.75 1.34 35
12 07/07/2022 09:02:29 -80.86,-102.18 120.25 07/07/2022 09:02:09 -80.86,-102.30 120.26 1.97 20
13 07/07/2022 09:53:09 80.86, 65.16 59.76 07/07/2022 09:53:12 80.85, 65.13 59.76 0.67 3
14 07/07/2022 10:43:51 -80.85,-127.67 120.26 07/07/2022 10:44:09 -80.86,-127.84 120.26 3.18 18
15 07/07/2022 11:34:31 80.85, 39.67 59.75 07/07/2022 11:35:12 80.86, 39.57 59.76 1.87 41



Historial Predications of SNOs between METOP-B and NOAA-19
